Погода в Мокреньком

Россия / Курская область     51°17′20″N   36°40′27″E
темп.,
°C
ветер,
м/с
пор.,
м/с
влажн.,
%
обл.,
%
осадки,
мм/ч
давл.,
гПа
погр.,
м
23 октября, сб
сб2300:00+8зюз411660 0.0 1012206
03:00+7зюз411661 0.0 1012198
06:00+8юз4116098 0.0 1012249
09:00+10юз496299 0.0 1012363
12:00+12зюз475010 0.0 10121027
15:00+13з811365 0.0 10121842
18:00+9з612537 0.0 10141176
21:00+6з511665 0.0 1017433
24 октября, вс
вс2400:00+4з410785 0.0 1018315
03:00+2зюз4980100 0.0 1018221
06:00+2зюз511835 0.0 1019295
09:00+5зюз51066100 0.0 1020339
12:00+7з6958100 0.0 1020886
15:00+7зсз7960100 0.1 10201527
18:00+5сз6965100 0.0 1022923
21:00+3ссз511725 0.1 1024504
25 октября, пн
пн2500:00+1ссз511795 0.0 1025431
03:00−1ссз511845 0.0 1027372
06:00−2ссз49935 0.0 1029246
09:000с47805 0.0 1032321
12:00+4с44480 0.0 1032891
15:00+5ссз33415 0.0 10321006
18:00+2сз11535 0.0 103310
21:000з11595 0.0 103310
26 октября, вт
вт2600:000юз22650 0.0 103417
03:00−1зюз33695 0.0 103437
06:00−2юз35727 0.0 103363
09:00+1юз366199 0.0 1033187
12:00+6юз564044 0.0 1032613
15:00+8юз573241 0.0 1030807
18:00+4юз36445 0.0 102990
21:00+2ююз48445 0.0 1029124
27 октября, ср
ср2700:00+1юз49445 0.0 1029152
03:000юз49455 0.0 1028150
06:00−1юз49470 0.0 1027151
09:00+2юз511411 0.0 1027283
12:00+8юз710300 0.0 1024652
15:00+9зюз79300 0.0 1023956
18:00+5юз41047100 0.0 1022177
21:00+4зюз41159100 0.0 1022287